Preview of NWS' New Version of Forecast
This preview is not operational and should not be used for support decisions.

Regional Weather Roundup (RWR)

Issued by National Weather Service (NWS)

                            
000
ASUS45 KABQ 211701
RWRNM 
NEW MEXICO REGIONAL WEATHER ROUNDUP
NATIONAL WEATHER SERVICE ALBUQUERQUE NM
1100 AM MDT SAT SEP 21 2019

NOTE: "FAIR" MEANS FEW OR NO CLOUDS BELOW 12,000 FEET AGL WITH NO
       SIGNIFICANT WEATHER OR OBSTRUCTIONS TO VISION.

      THIS PRODUCT IS RELEASED AS TWO VERSIONS.  ONE VERSION NEAR
      THE TOP OF THE HOUR CONTAINING PRELIMINARY DATA FROM ALBUQUERQUE
      AND OTHER STATIONS.  A FINAL VERSION WITH ADDITIONAL DATA IS 
      ISSUED ABOUT 10 MINUTES AFTER THE HOUR.
 
NMZ501-503-504-510>518-211800-
NORTHWEST PLATEAU/NORTHCENTRAL MOUNTAINS
  
CITY           SKY/WX    TMP DP  RH WIND       PRES   REMARKS
FARMINGTON     FAIR      67  30  25 E6        30.11F                  
LOS ALAMOS     FAIR      67  29  23 S5G16     30.22F                  
SANTA FE       FAIR      72  33  24 VRB5      30.18F                  
ANGEL FIRE     FAIR      60  30  32 W13G23    30.27F                  

$$
NMZ402-403-502-505>509-211800-
WESTCENTRAL MOUNTAINS/SOUTHWEST MOUNTAINS
  
CITY           SKY/WX    TMP DP  RH WIND       PRES   REMARKS
GALLUP         FAIR      68  29  23 W17G26    30.18F                  
GRANTS         FAIR      68  37  32 SW3       30.21F                  
SILVER CITY    FAIR      75  46  36 W8        30.16S                  

$$
NMZ407-409-411-412-211800-
SOUTHERN DESERTS
  
CITY           SKY/WX    TMP DP  RH WIND       PRES   REMARKS
DEMING         FAIR      77  45  32 SW8       30.10S                  
LAS CRUCES     CLOUDY    76  46  35 S9        30.12R                  
ALAMOGORDO     FAIR      79  54  41 S15       30.08S                  
T OR C         FAIR      80  43  26 CALM      30.10S                  

$$
NMZ519>523-211800-
CENTRAL VALLEYS/CENTRAL HIGHLANDS
  
CITY           SKY/WX    TMP DP  RH WIND       PRES   REMARKS
ALBUQUERQUE    FAIR      74  37  26 NW5       30.14S                  
DOUBLE EAGLE   MOSUNNY   72  41  33 SW8G16    30.17S                  
CLINES CORNERS PTSUNNY   69  32  25 NW10G21   30.23F                  
BELEN          FAIR      75  31  20 N5        30.14S                  
SOCORRO        FAIR      76  33  20 N6        30.11F                  

$$
NMZ524>526-539-540-211800-
SOUTHCENTRAL MOUNTAINS
  
CITY           SKY/WX    TMP DP  RH WIND       PRES   REMARKS
RUIDOSO        PTSUNNY   64  48  55 S7        30.25F                  

$$
NMZ527>531-211800-
NORTHEAST HIGHLANDS/NORTHEAST PLAINS
  
CITY           SKY/WX    TMP DP  RH WIND       PRES   REMARKS
LAS VEGAS      FAIR      73  34  23 SW22G31   30.17F                  
RATON          FAIR      73  28  18 SW13      30.10F                  
CLAYTON        FAIR      78  43  28 S12       30.06F                  

$$
NMZ532>537-211800-
EASTCENTRAL PLAINS
  
CITY           SKY/WX    TMP DP  RH WIND       PRES   REMARKS
TUCUMCARI      FAIR      81  63  54 SW14      30.01F                  
CANNON AFB     NOT AVBL                                               
CLOVIS AIRPORT CLOUDY    73  66  78 S10       30.09F                  

$$
NMZ028-029-033-538-211800-
SOUTHEAST PLAINS
  
CITY           SKY/WX    TMP DP  RH WIND       PRES   REMARKS
ROSWELL        PTSUNNY   78  62  57 SW9       30.05S                  
ARTESIA        FAIR      75  68  78 S9        30.07S                  
CARLSBAD       LGT RAIN  76  64  66 S10       30.02S                  
HOBBS          LGT RAIN  72  66  83 S16G23    30.08S                  


$$